Year,Month,Day,Hour,Minute,Value (Times are PST for temperature in C)
2016,04,10,00,00,9.50
2016,04,10,00,01,9.50
2016,04,10,00,02,9.50
2016,04,10,00,03,9.50
2016,04,10,00,04,9.40
2016,04,10,00,05,9.40
2016,04,10,00,06,9.40
2016,04,10,00,07,9.40
2016,04,10,00,08,9.30
2016,04,10,00,09,9.30
2016,04,10,00,10,9.30
2016,04,10,00,11,9.30
2016,04,10,00,12,9.30
2016,04,10,00,13,9.30
2016,04,10,00,14,9.30
2016,04,10,00,15,9.30
2016,04,10,00,16,9.30
2016,04,10,00,17,9.30
2016,04,10,00,18,9.30
2016,04,10,00,19,9.20
2016,04,10,00,20,9.20
2016,04,10,00,21,9.20
2016,04,10,00,22,9.20
2016,04,10,00,23,9.20
2016,04,10,00,24,9.20
2016,04,10,00,25,9.20
2016,04,10,00,26,9.20
2016,04,10,00,27,9.20
2016,04,10,00,28,9.20
2016,04,10,00,29,9.20
2016,04,10,00,30,9.10
2016,04,10,00,31,9.10
2016,04,10,00,32,9.10
2016,04,10,00,33,9.10
2016,04,10,00,34,9.10
2016,04,10,00,35,9.10
2016,04,10,00,36,9.10
2016,04,10,00,37,9.10
2016,04,10,00,38,9.10
2016,04,10,00,39,9.10
2016,04,10,00,40,9.10
2016,04,10,00,41,9.10
2016,04,10,00,42,9.10
2016,04,10,00,43,9.10
2016,04,10,00,44,9.00
2016,04,10,00,45,9.00
2016,04,10,00,46,9.00
2016,04,10,00,47,9.00
2016,04,10,00,48,9.00
2016,04,10,00,49,9.00
2016,04,10,00,50,9.00
2016,04,10,00,51,8.90
2016,04,10,00,52,8.90
2016,04,10,00,53,8.90
2016,04,10,00,54,8.90
2016,04,10,00,55,8.90
2016,04,10,00,56,8.90
2016,04,10,00,57,8.90
2016,04,10,00,58,8.90
2016,04,10,00,59,8.90
2016,04,10,01,00,8.80
2016,04,10,01,01,8.80
2016,04,10,01,02,8.80
2016,04,10,01,03,8.80
2016,04,10,01,04,8.80
2016,04,10,01,05,8.80
2016,04,10,01,06,8.80
2016,04,10,01,07,8.80
2016,04,10,01,08,8.70
2016,04,10,01,09,8.70
2016,04,10,01,10,8.70
2016,04,10,01,11,8.70
2016,04,10,01,12,8.70
2016,04,10,01,13,8.70
2016,04,10,01,14,8.60
2016,04,10,01,15,8.60
2016,04,10,01,16,8.60
2016,04,10,01,17,8.60
2016,04,10,01,18,8.60
2016,04,10,01,19,8.60
2016,04,10,01,20,8.60
2016,04,10,01,21,8.50
2016,04,10,01,22,8.50
2016,04,10,01,23,8.50
2016,04,10,01,24,8.50
2016,04,10,01,25,8.50
2016,04,10,01,26,8.50
2016,04,10,01,27,8.40
2016,04,10,01,28,8.40
2016,04,10,01,29,8.40
2016,04,10,01,30,8.40
2016,04,10,01,31,8.40
2016,04,10,01,32,8.50
2016,04,10,01,33,8.50
2016,04,10,01,34,8.50
2016,04,10,01,35,8.50
2016,04,10,01,36,8.40
2016,04,10,01,37,8.40
2016,04,10,01,38,8.40
2016,04,10,01,39,8.40
2016,04,10,01,40,8.40
2016,04,10,01,41,8.40
2016,04,10,01,42,8.40
2016,04,10,01,43,8.40
2016,04,10,01,44,8.40
2016,04,10,01,45,8.40
2016,04,10,01,46,8.40
2016,04,10,01,47,8.40
2016,04,10,01,48,8.40
2016,04,10,01,49,8.40
2016,04,10,01,50,8.40
2016,04,10,01,51,8.40
2016,04,10,01,52,8.40
2016,04,10,01,53,8.40
2016,04,10,01,54,8.40
2016,04,10,01,55,8.40
2016,04,10,01,56,8.40
2016,04,10,01,57,8.40
2016,04,10,01,58,8.30
2016,04,10,01,59,8.30
2016,04,10,02,00,8.30
2016,04,10,02,01,8.30
2016,04,10,02,02,8.30
2016,04,10,02,03,8.30
2016,04,10,02,04,8.30
2016,04,10,02,05,8.30
2016,04,10,02,06,8.30
2016,04,10,02,07,8.30
2016,04,10,02,08,8.30
2016,04,10,02,09,8.30
2016,04,10,02,10,8.30
2016,04,10,02,11,8.30
2016,04,10,02,12,8.30
2016,04,10,02,13,8.30
2016,04,10,02,14,8.30
2016,04,10,02,15,8.30
2016,04,10,02,16,8.30
2016,04,10,02,17,8.30
2016,04,10,02,18,8.30
2016,04,10,02,19,8.20
2016,04,10,02,20,8.20
2016,04,10,02,21,8.20
2016,04,10,02,22,8.20
2016,04,10,02,23,8.20
2016,04,10,02,24,8.20
2016,04,10,02,25,8.20
2016,04,10,02,26,8.20
2016,04,10,02,27,8.20
2016,04,10,02,28,8.20
2016,04,10,02,29,8.10
2016,04,10,02,30,8.10
2016,04,10,02,31,8.10
2016,04,10,02,32,8.10
2016,04,10,02,33,8.10
2016,04,10,02,34,8.10
2016,04,10,02,35,8.10
2016,04,10,02,36,8.10
2016,04,10,02,37,8.10
2016,04,10,02,38,8.00
2016,04,10,02,39,8.00
2016,04,10,02,40,8.00
2016,04,10,02,41,8.00
2016,04,10,02,42,8.00
2016,04,10,02,43,8.00
2016,04,10,02,44,8.00
2016,04,10,02,45,8.00
2016,04,10,02,46,7.90
2016,04,10,02,47,7.90
2016,04,10,02,48,7.90
2016,04,10,02,49,7.90
2016,04,10,02,50,7.90
2016,04,10,02,51,7.90
2016,04,10,02,52,7.90
2016,04,10,02,53,7.90
2016,04,10,02,54,7.90
2016,04,10,02,55,7.90
2016,04,10,02,56,7.90
2016,04,10,02,57,7.90
2016,04,10,02,58,7.90
2016,04,10,02,59,7.90
2016,04,10,03,00,7.80
2016,04,10,03,01,7.80
2016,04,10,03,02,7.80
2016,04,10,03,03,7.80
2016,04,10,03,04,7.80
2016,04,10,03,05,7.80
2016,04,10,03,06,7.80
2016,04,10,03,07,7.80
2016,04,10,03,08,7.80
2016,04,10,03,09,7.80
2016,04,10,03,10,7.70
2016,04,10,03,11,7.70
2016,04,10,03,12,7.70
2016,04,10,03,13,7.70
2016,04,10,03,14,7.70
2016,04,10,03,15,7.70
2016,04,10,03,16,7.70
2016,04,10,03,17,7.70
2016,04,10,03,18,7.60
2016,04,10,03,19,7.60
2016,04,10,03,20,7.60
2016,04,10,03,21,7.60
2016,04,10,03,22,7.60
2016,04,10,03,23,7.60
2016,04,10,03,24,7.60
2016,04,10,03,25,7.60
2016,04,10,03,26,7.60
2016,04,10,03,27,7.50
2016,04,10,03,28,7.50
2016,04,10,03,29,7.50
2016,04,10,03,30,7.50
2016,04,10,03,31,7.50
2016,04,10,03,32,7.50
2016,04,10,03,33,7.50
2016,04,10,03,34,7.50
2016,04,10,03,35,7.50
2016,04,10,03,36,7.50
2016,04,10,03,37,7.50
2016,04,10,03,38,7.50
2016,04,10,03,39,7.40
2016,04,10,03,40,7.40
2016,04,10,03,41,7.40
2016,04,10,03,42,7.40
2016,04,10,03,43,7.40
2016,04,10,03,44,7.40
2016,04,10,03,45,7.40
2016,04,10,03,46,7.40
2016,04,10,03,47,7.40
2016,04,10,03,48,7.40
2016,04,10,03,49,7.40
2016,04,10,03,50,7.40
2016,04,10,03,51,7.40
2016,04,10,03,52,7.40
2016,04,10,03,53,7.40
2016,04,10,03,54,7.40
2016,04,10,03,55,7.30
2016,04,10,03,56,7.30
2016,04,10,03,57,7.30
2016,04,10,03,58,7.30
2016,04,10,03,59,7.30
2016,04,10,04,00,7.30
2016,04,10,04,01,7.30
2016,04,10,04,02,7.30
2016,04,10,04,03,7.30
2016,04,10,04,04,7.30
2016,04,10,04,05,7.30
2016,04,10,04,06,7.20
2016,04,10,04,07,7.20
2016,04,10,04,08,7.20
2016,04,10,04,09,7.20
2016,04,10,04,10,7.20
2016,04,10,04,11,7.20
2016,04,10,04,12,7.20
2016,04,10,04,13,7.20
2016,04,10,04,14,7.20
2016,04,10,04,15,7.20
2016,04,10,04,16,7.20
2016,04,10,04,17,7.20
2016,04,10,04,18,7.20
2016,04,10,04,19,7.10
2016,04,10,04,20,7.10
2016,04,10,04,21,7.10
2016,04,10,04,22,7.10
2016,04,10,04,23,7.10
2016,04,10,04,24,7.10
2016,04,10,04,25,7.10
2016,04,10,04,26,7.00
2016,04,10,04,27,7.00
2016,04,10,04,28,7.00
2016,04,10,04,29,7.00
2016,04,10,04,30,7.00
2016,04,10,04,31,6.90
2016,04,10,04,32,6.90
2016,04,10,04,33,6.90
2016,04,10,04,34,6.90
2016,04,10,04,35,6.90
2016,04,10,04,36,6.90
2016,04,10,04,37,6.90
2016,04,10,04,38,6.90
2016,04,10,04,39,6.90
2016,04,10,04,40,6.90
2016,04,10,04,41,6.90
2016,04,10,04,42,6.90
2016,04,10,04,43,6.90
2016,04,10,04,44,6.90
2016,04,10,04,45,6.90
2016,04,10,04,46,6.90
2016,04,10,04,47,6.90
2016,04,10,04,48,6.90
2016,04,10,04,49,6.90
2016,04,10,04,50,6.90
2016,04,10,04,51,6.90
2016,04,10,04,52,6.90
2016,04,10,04,53,6.90
2016,04,10,04,54,6.90
2016,04,10,04,55,6.90
2016,04,10,04,56,6.90
2016,04,10,04,57,6.90
2016,04,10,04,58,6.90
2016,04,10,04,59,6.90
2016,04,10,05,00,6.90
2016,04,10,05,01,6.90
2016,04,10,05,02,6.90
2016,04,10,05,03,6.90
2016,04,10,05,04,6.90
2016,04,10,05,05,6.90
2016,04,10,05,06,6.90
2016,04,10,05,07,6.90
2016,04,10,05,08,6.90
2016,04,10,05,09,6.90
2016,04,10,05,10,6.90
2016,04,10,05,11,6.90
2016,04,10,05,12,6.80
2016,04,10,05,13,6.80
2016,04,10,05,14,6.80
2016,04,10,05,15,6.80
2016,04,10,05,16,6.80
2016,04,10,05,17,6.80
2016,04,10,05,18,6.80
2016,04,10,05,19,6.80
2016,04,10,05,20,6.80
2016,04,10,05,21,6.80
2016,04,10,05,22,6.80
2016,04,10,05,23,6.80
2016,04,10,05,24,6.90
2016,04,10,05,25,6.90
2016,04,10,05,26,6.90
2016,04,10,05,27,6.90
2016,04,10,05,28,6.90
2016,04,10,05,29,6.90
2016,04,10,05,30,6.90
2016,04,10,05,31,6.90
2016,04,10,05,32,6.90
2016,04,10,05,33,6.90
2016,04,10,05,34,6.90
2016,04,10,05,35,6.90
2016,04,10,05,36,6.90
2016,04,10,05,37,6.90
2016,04,10,05,38,6.90
2016,04,10,05,39,7.00
2016,04,10,05,40,7.00
2016,04,10,05,41,7.00
2016,04,10,05,42,7.00
2016,04,10,05,43,7.00
2016,04,10,05,44,7.10
2016,04,10,05,45,7.10
2016,04,10,05,46,7.10
2016,04,10,05,47,7.20
2016,04,10,05,48,7.20
2016,04,10,05,49,7.20
2016,04,10,05,50,7.30
2016,04,10,05,51,7.30
2016,04,10,05,52,7.30
2016,04,10,05,53,7.30
2016,04,10,05,54,7.30
2016,04,10,05,55,7.40
2016,04,10,05,56,7.40
2016,04,10,05,57,7.40
2016,04,10,05,58,7.40
2016,04,10,05,59,7.40
2016,04,10,06,00,7.40
2016,04,10,06,01,7.40
2016,04,10,06,02,7.40
2016,04,10,06,03,7.40
2016,04,10,06,04,7.40
2016,04,10,06,05,7.40
2016,04,10,06,06,7.40
2016,04,10,06,07,7.40
2016,04,10,06,08,7.40
2016,04,10,06,09,7.40
2016,04,10,06,10,7.40
2016,04,10,06,11,7.40
2016,04,10,06,12,7.40
2016,04,10,06,13,7.40
2016,04,10,06,14,7.40
2016,04,10,06,15,7.40
2016,04,10,06,16,7.40
2016,04,10,06,17,7.40
2016,04,10,06,18,7.40
2016,04,10,06,19,7.40
2016,04,10,06,20,7.40
2016,04,10,06,21,7.40
2016,04,10,06,22,7.40
2016,04,10,06,23,7.40
2016,04,10,06,24,7.40
2016,04,10,06,25,7.40
2016,04,10,06,26,7.40
2016,04,10,06,27,7.40
2016,04,10,06,28,7.40
2016,04,10,06,29,7.40
2016,04,10,06,30,7.40
2016,04,10,06,31,7.40
2016,04,10,06,32,7.40
2016,04,10,06,33,7.30
2016,04,10,06,34,7.30
2016,04,10,06,35,7.30
2016,04,10,06,36,7.30
2016,04,10,06,37,7.30
2016,04,10,06,38,7.30
2016,04,10,06,39,7.30
2016,04,10,06,40,7.30
2016,04,10,06,41,7.30
2016,04,10,06,42,7.30
2016,04,10,06,43,7.30
2016,04,10,06,44,7.30
2016,04,10,06,45,7.30
2016,04,10,06,46,7.30
2016,04,10,06,47,7.30
2016,04,10,06,48,7.30
2016,04,10,06,49,7.40
2016,04,10,06,50,7.40
2016,04,10,06,51,7.40
2016,04,10,06,52,7.40
2016,04,10,06,53,7.40
2016,04,10,06,54,7.50
2016,04,10,06,55,7.50
2016,04,10,06,56,7.50
2016,04,10,06,57,7.50
2016,04,10,06,58,7.60
2016,04,10,06,59,7.60
2016,04,10,07,00,7.60
2016,04,10,07,01,7.60
2016,04,10,07,02,7.70
2016,04,10,07,03,7.70
2016,04,10,07,04,7.70
2016,04,10,07,05,7.80
2016,04,10,07,06,7.80
2016,04,10,07,07,7.90
2016,04,10,07,08,7.90
2016,04,10,07,09,8.00
2016,04,10,07,10,8.00
2016,04,10,07,11,8.10
2016,04,10,07,12,8.20
2016,04,10,07,13,8.20
2016,04,10,07,14,8.20
2016,04,10,07,15,8.30
2016,04,10,07,16,8.30
2016,04,10,07,17,8.40
2016,04,10,07,18,8.40
2016,04,10,07,19,8.40
2016,04,10,07,20,8.40
2016,04,10,07,21,8.50
2016,04,10,07,22,8.50
2016,04,10,07,23,8.50
2016,04,10,07,24,8.60
2016,04,10,07,25,8.60
2016,04,10,07,26,8.60
2016,04,10,07,27,8.60
2016,04,10,07,28,8.60
2016,04,10,07,29,8.70
2016,04,10,07,30,8.70
2016,04,10,07,31,8.70
2016,04,10,07,32,8.70
2016,04,10,07,33,8.70
2016,04,10,07,34,8.70
2016,04,10,07,35,8.80
2016,04,10,07,36,8.80
2016,04,10,07,37,8.80
2016,04,10,07,38,8.80
2016,04,10,07,39,8.80
2016,04,10,07,40,8.80
2016,04,10,07,41,8.80
2016,04,10,07,42,8.80
2016,04,10,07,43,8.80
2016,04,10,07,44,8.80
2016,04,10,07,45,8.90
2016,04,10,07,46,8.90
2016,04,10,07,47,8.90
2016,04,10,07,48,8.90
2016,04,10,07,49,8.90
2016,04,10,07,50,8.90
2016,04,10,07,51,8.90
2016,04,10,07,52,8.90
2016,04,10,07,53,8.90
2016,04,10,07,54,9.00
2016,04,10,07,55,9.00
2016,04,10,07,56,9.00
2016,04,10,07,57,9.00
2016,04,10,07,58,9.00
2016,04,10,07,59,9.10
2016,04,10,08,00,9.10
2016,04,10,08,01,9.10
2016,04,10,08,02,9.10
2016,04,10,08,03,9.10
2016,04,10,08,04,9.10
2016,04,10,08,05,9.10
2016,04,10,08,06,9.10
2016,04,10,08,07,9.10
2016,04,10,08,08,9.10
2016,04,10,08,09,9.10
2016,04,10,08,10,9.20
2016,04,10,08,11,9.20
2016,04,10,08,12,9.20
2016,04,10,08,13,9.20
2016,04,10,08,14,9.20
2016,04,10,08,15,9.20
2016,04,10,08,16,9.20
2016,04,10,08,17,9.20
2016,04,10,08,18,9.20
2016,04,10,08,19,9.20
2016,04,10,08,20,9.20
2016,04,10,08,21,9.20
2016,04,10,08,22,9.30
2016,04,10,08,23,9.30
2016,04,10,08,24,9.30
2016,04,10,08,25,9.30
2016,04,10,08,26,9.30
2016,04,10,08,27,9.30
2016,04,10,08,28,9.30
2016,04,10,08,29,9.30
2016,04,10,08,30,9.30
2016,04,10,08,31,9.30
2016,04,10,08,32,9.40
2016,04,10,08,33,9.40
2016,04,10,08,34,9.40
2016,04,10,08,35,9.40
2016,04,10,08,36,9.40
2016,04,10,08,37,9.40
2016,04,10,08,38,9.40
2016,04,10,08,39,9.40
2016,04,10,08,40,9.50
2016,04,10,08,41,9.50
2016,04,10,08,42,9.50
2016,04,10,08,43,9.50
2016,04,10,08,44,9.50
2016,04,10,08,45,9.50
2016,04,10,08,46,9.60
2016,04,10,08,47,9.60
2016,04,10,08,48,9.60
2016,04,10,08,49,9.60
2016,04,10,08,50,9.60
2016,04,10,08,51,9.60
2016,04,10,08,52,9.60
2016,04,10,08,53,9.60
2016,04,10,08,54,9.60
2016,04,10,08,55,9.70
2016,04,10,08,56,9.70
2016,04,10,08,57,9.70
2016,04,10,08,58,9.70
2016,04,10,08,59,9.70
2016,04,10,09,00,9.70
2016,04,10,09,01,9.70
2016,04,10,09,02,9.70
2016,04,10,09,03,9.70
2016,04,10,09,04,9.70
2016,04,10,09,05,9.70
2016,04,10,09,06,9.80
2016,04,10,09,07,9.80
2016,04,10,09,08,9.80
2016,04,10,09,09,9.80
2016,04,10,09,10,9.80
2016,04,10,09,11,9.80
2016,04,10,09,12,9.80
2016,04,10,09,13,9.80
2016,04,10,09,14,9.80
2016,04,10,09,15,9.90
2016,04,10,09,16,9.90
2016,04,10,09,17,9.90
2016,04,10,09,18,9.90
2016,04,10,09,19,9.90
2016,04,10,09,20,9.90
2016,04,10,09,21,10.00
2016,04,10,09,22,10.00
2016,04,10,09,23,10.00
2016,04,10,09,24,10.00
2016,04,10,09,25,10.10
2016,04,10,09,26,10.10
2016,04,10,09,27,10.10
2016,04,10,09,28,10.10
2016,04,10,09,29,10.10
2016,04,10,09,30,10.10
2016,04,10,09,31,10.10
2016,04,10,09,32,10.10
2016,04,10,09,33,10.10
2016,04,10,09,34,10.20
2016,04,10,09,35,10.20
2016,04,10,09,36,10.20
2016,04,10,09,37,10.20
2016,04,10,09,38,10.20
2016,04,10,09,39,10.20
2016,04,10,09,40,10.20
2016,04,10,09,41,10.20
2016,04,10,09,42,10.20
2016,04,10,09,43,10.20
2016,04,10,09,44,10.20
2016,04,10,09,45,10.20
2016,04,10,09,46,10.20
2016,04,10,09,47,10.20
2016,04,10,09,48,10.20
2016,04,10,09,49,10.30
2016,04,10,09,50,10.30
2016,04,10,09,51,10.30
2016,04,10,09,52,10.30
2016,04,10,09,53,10.30
2016,04,10,09,54,10.30
2016,04,10,09,55,10.30
2016,04,10,09,56,10.30
2016,04,10,09,57,10.30
2016,04,10,09,58,10.30
2016,04,10,09,59,10.30
2016,04,10,10,00,10.30
2016,04,10,10,01,10.30
2016,04,10,10,02,10.30
2016,04,10,10,03,10.30
2016,04,10,10,04,10.30
2016,04,10,10,05,10.30
2016,04,10,10,06,10.30
2016,04,10,10,07,10.40
2016,04,10,10,08,10.40
2016,04,10,10,09,10.40
2016,04,10,10,10,10.40
2016,04,10,10,11,10.40
2016,04,10,10,12,10.40
2016,04,10,10,13,10.40
2016,04,10,10,14,10.40
2016,04,10,10,15,10.50
2016,04,10,10,16,10.50
2016,04,10,10,17,10.50
2016,04,10,10,18,10.60
2016,04,10,10,19,10.60
2016,04,10,10,20,10.60
2016,04,10,10,21,10.60
2016,04,10,10,22,10.60
2016,04,10,10,23,10.60
2016,04,10,10,24,10.60
2016,04,10,10,25,10.70
2016,04,10,10,26,10.70
2016,04,10,10,27,10.70
2016,04,10,10,28,10.70
2016,04,10,10,29,10.70
2016,04,10,10,30,10.70
2016,04,10,10,31,10.70
2016,04,10,10,32,10.70
2016,04,10,10,33,10.80
2016,04,10,10,34,10.80
2016,04,10,10,35,10.80
2016,04,10,10,36,10.80
2016,04,10,10,37,10.80
2016,04,10,10,38,10.80
2016,04,10,10,39,10.80
2016,04,10,10,40,10.80
2016,04,10,10,41,10.90
2016,04,10,10,42,10.90
2016,04,10,10,43,10.90
2016,04,10,10,44,10.90
2016,04,10,10,45,10.90
2016,04,10,10,46,10.90
2016,04,10,10,47,11.00
2016,04,10,10,48,11.00
2016,04,10,10,49,11.00
2016,04,10,10,50,11.00
2016,04,10,10,51,11.00
2016,04,10,10,52,11.10
2016,04,10,10,53,11.10
2016,04,10,10,54,11.10
2016,04,10,10,55,11.10
2016,04,10,10,56,11.20
2016,04,10,10,57,11.20
2016,04,10,10,58,11.20
2016,04,10,10,59,11.30
2016,04,10,11,00,11.30
2016,04,10,11,01,11.30
2016,04,10,11,02,11.30
2016,04,10,11,03,11.40
2016,04,10,11,04,11.40
2016,04,10,11,05,11.40
2016,04,10,11,06,11.50
2016,04,10,11,07,11.50
2016,04,10,11,08,11.60
2016,04,10,11,09,11.60
2016,04,10,11,10,11.60
2016,04,10,11,11,11.60
2016,04,10,11,12,11.60
2016,04,10,11,13,11.70
2016,04,10,11,14,11.70
2016,04,10,11,15,11.70
2016,04,10,11,16,11.70
2016,04,10,11,17,11.70
2016,04,10,11,18,11.80
2016,04,10,11,19,11.80
2016,04,10,11,20,11.80
2016,04,10,11,21,11.90
2016,04,10,11,22,11.90
2016,04,10,11,23,11.90
2016,04,10,11,24,11.90
2016,04,10,11,25,11.90
2016,04,10,11,26,11.90
2016,04,10,11,27,12.00
2016,04,10,11,28,12.00
2016,04,10,11,29,12.00
2016,04,10,11,30,12.10
2016,04,10,11,31,12.10
2016,04,10,11,32,12.10
2016,04,10,11,33,12.10
2016,04,10,11,34,12.20
2016,04,10,11,35,12.20
2016,04,10,11,36,12.20
2016,04,10,11,37,12.20
2016,04,10,11,38,12.20
2016,04,10,11,39,12.30
2016,04,10,11,40,12.30
2016,04,10,11,41,12.30
2016,04,10,11,42,12.40
2016,04,10,11,43,12.40
2016,04,10,11,44,12.40
2016,04,10,11,45,12.40
2016,04,10,11,46,12.40
2016,04,10,11,47,12.40
2016,04,10,11,48,12.40
2016,04,10,11,49,12.40
2016,04,10,11,50,12.50
2016,04,10,11,51,12.50
2016,04,10,11,52,12.50
2016,04,10,11,53,12.60
2016,04,10,11,54,12.60
2016,04,10,11,55,12.60
2016,04,10,11,56,12.70
2016,04,10,11,57,12.70
2016,04,10,11,58,12.70
2016,04,10,11,59,12.80
2016,04,10,12,00,12.80
2016,04,10,12,01,12.80
2016,04,10,12,02,12.90
2016,04,10,12,03,12.90
2016,04,10,12,04,12.90
2016,04,10,12,05,13.00
2016,04,10,12,06,13.00
2016,04,10,12,07,13.00
2016,04,10,12,08,12.90
2016,04,10,12,09,12.90
2016,04,10,12,10,12.90
2016,04,10,12,11,12.90
2016,04,10,12,12,12.90
2016,04,10,12,13,12.90
2016,04,10,12,14,12.90
2016,04,10,12,15,12.90
2016,04,10,12,16,12.90
2016,04,10,12,17,13.00
2016,04,10,12,18,13.00
2016,04,10,12,19,13.10
2016,04,10,12,20,13.10
2016,04,10,12,21,13.20
2016,04,10,12,22,13.30
2016,04,10,12,23,13.30
2016,04,10,12,24,13.30
2016,04,10,12,25,13.30
2016,04,10,12,26,13.40
2016,04,10,12,27,13.40
2016,04,10,12,28,13.40
2016,04,10,12,29,13.40
2016,04,10,12,30,13.50
2016,04,10,12,31,13.50
2016,04,10,12,32,13.60
2016,04,10,12,33,13.60
2016,04,10,12,34,13.70
2016,04,10,12,35,13.70
2016,04,10,12,36,13.70
2016,04,10,12,37,13.80
2016,04,10,12,38,13.80
2016,04,10,12,39,13.80
2016,04,10,12,40,13.80
2016,04,10,12,41,13.80
2016,04,10,12,42,13.80
2016,04,10,12,43,13.80
2016,04,10,12,44,13.80
2016,04,10,12,45,13.80
2016,04,10,12,46,13.80
2016,04,10,12,47,13.90
2016,04,10,12,48,13.90
2016,04,10,12,49,13.90
2016,04,10,12,50,14.00
2016,04,10,12,51,14.00
2016,04,10,12,52,14.00
2016,04,10,12,53,14.00
2016,04,10,12,54,14.10
2016,04,10,12,55,14.10
2016,04,10,12,56,14.10
2016,04,10,12,57,14.10
2016,04,10,12,58,14.10
2016,04,10,12,59,14.20
2016,04,10,13,00,14.20
2016,04,10,13,01,14.30
2016,04,10,13,02,14.30
2016,04,10,13,03,14.30
2016,04,10,13,04,14.30
2016,04,10,13,05,14.30
2016,04,10,13,06,14.30
2016,04,10,13,07,14.30
2016,04,10,13,08,14.30
2016,04,10,13,09,14.30
2016,04,10,13,10,14.30
2016,04,10,13,11,14.30
2016,04,10,13,12,14.40
2016,04,10,13,13,14.40
2016,04,10,13,14,14.30
2016,04,10,13,15,14.30
2016,04,10,13,16,14.30
2016,04,10,13,17,14.40
2016,04,10,13,18,14.40
2016,04,10,13,19,14.40
2016,04,10,13,20,14.40
2016,04,10,13,21,14.40
2016,04,10,13,22,14.40
2016,04,10,13,23,14.40
2016,04,10,13,24,14.40
2016,04,10,13,25,14.40
2016,04,10,13,26,14.50
2016,04,10,13,27,14.50
2016,04,10,13,28,14.60
2016,04,10,13,29,14.60
2016,04,10,13,30,14.60
2016,04,10,13,31,14.70
2016,04,10,13,32,14.70
2016,04,10,13,33,14.70
2016,04,10,13,34,14.70
2016,04,10,13,35,14.70
2016,04,10,13,36,14.80
2016,04,10,13,37,14.80
2016,04,10,13,38,14.90
2016,04,10,13,39,14.90
2016,04,10,13,40,14.90
2016,04,10,13,41,14.90
2016,04,10,13,42,14.90
2016,04,10,13,43,14.90
2016,04,10,13,44,14.90
2016,04,10,13,45,14.90
2016,04,10,13,46,14.90
2016,04,10,13,47,14.90
2016,04,10,13,48,14.90
2016,04,10,13,49,14.90
2016,04,10,13,50,15.00
2016,04,10,13,51,15.00
2016,04,10,13,52,15.10
2016,04,10,13,53,15.10
2016,04,10,13,54,15.20
2016,04,10,13,55,15.30
2016,04,10,13,56,15.30
2016,04,10,13,57,15.40
2016,04,10,13,58,15.40
2016,04,10,13,59,15.50
2016,04,10,14,00,15.50
2016,04,10,14,01,15.60
2016,04,10,14,02,15.60
2016,04,10,14,03,15.60
2016,04,10,14,04,15.60
2016,04,10,14,05,15.60
2016,04,10,14,06,15.60
2016,04,10,14,07,15.60
2016,04,10,14,08,15.60
2016,04,10,14,09,15.60
2016,04,10,14,10,15.50
2016,04,10,14,11,15.50
2016,04,10,14,12,15.50
2016,04,10,14,13,15.50
2016,04,10,14,14,15.40
2016,04,10,14,15,15.40
2016,04,10,14,16,15.40
2016,04,10,14,17,15.30
2016,04,10,14,18,15.30
2016,04,10,14,19,15.30
2016,04,10,14,20,15.30
2016,04,10,14,21,15.40
2016,04,10,14,22,15.40
2016,04,10,14,23,15.40
2016,04,10,14,24,15.50
2016,04,10,14,25,15.50
2016,04,10,14,26,15.60
2016,04,10,14,27,15.60
2016,04,10,14,28,15.60
2016,04,10,14,29,15.70
2016,04,10,14,30,15.70
2016,04,10,14,31,15.70
2016,04,10,14,32,15.70
2016,04,10,14,33,15.70
2016,04,10,14,34,15.60
2016,04,10,14,35,15.60
2016,04,10,14,36,15.60
2016,04,10,14,37,15.60
2016,04,10,14,38,15.60
2016,04,10,14,39,15.60
2016,04,10,14,40,15.70
2016,04,10,14,41,15.70
2016,04,10,14,42,15.70
2016,04,10,14,43,15.60
2016,04,10,14,44,15.60
2016,04,10,14,45,15.60
2016,04,10,14,46,15.60
2016,04,10,14,47,15.60
2016,04,10,14,48,15.50
2016,04,10,14,49,15.50
2016,04,10,14,50,15.50
2016,04,10,14,51,15.50
2016,04,10,14,52,15.60
2016,04,10,14,53,15.60
2016,04,10,14,54,15.60
2016,04,10,14,55,15.60
2016,04,10,14,56,15.60
2016,04,10,14,57,15.60
2016,04,10,14,58,15.60
2016,04,10,14,59,15.60
2016,04,10,15,00,15.60
2016,04,10,15,01,15.60
2016,04,10,15,02,15.60
2016,04,10,15,03,15.60
2016,04,10,15,04,15.60
2016,04,10,15,05,15.60
2016,04,10,15,06,15.60
2016,04,10,15,07,15.60
2016,04,10,15,08,15.60
2016,04,10,15,09,15.70
2016,04,10,15,10,15.60
2016,04,10,15,11,15.60
2016,04,10,15,12,15.60
2016,04,10,15,13,15.60
2016,04,10,15,14,15.60
2016,04,10,15,15,15.60
2016,04,10,15,16,15.60
2016,04,10,15,17,15.70
2016,04,10,15,18,15.70
2016,04,10,15,19,15.70
2016,04,10,15,20,15.80
2016,04,10,15,21,15.80
2016,04,10,15,22,15.80
2016,04,10,15,23,15.80
2016,04,10,15,24,15.80
2016,04,10,15,25,15.80
2016,04,10,15,26,15.80
2016,04,10,15,27,15.80
2016,04,10,15,28,15.80
2016,04,10,15,29,15.80
2016,04,10,15,30,15.80
2016,04,10,15,31,15.80
2016,04,10,15,32,15.80
2016,04,10,15,33,15.80
2016,04,10,15,34,15.80
2016,04,10,15,35,15.80
2016,04,10,15,36,15.80
2016,04,10,15,37,15.80
2016,04,10,15,38,15.80
2016,04,10,15,39,15.80
2016,04,10,15,40,15.80
2016,04,10,15,41,15.80
2016,04,10,15,42,15.80
2016,04,10,15,43,15.80
2016,04,10,15,44,15.80
2016,04,10,15,45,15.80
2016,04,10,15,46,15.80
2016,04,10,15,47,15.70
2016,04,10,15,48,15.70
2016,04,10,15,49,15.70
2016,04,10,15,50,15.70
2016,04,10,15,51,15.60
2016,04,10,15,52,15.60
2016,04,10,15,53,15.60
2016,04,10,15,54,15.70
2016,04,10,15,55,15.70
2016,04,10,15,56,15.70
2016,04,10,15,57,15.70
2016,04,10,15,58,15.70
2016,04,10,15,59,15.70
2016,04,10,16,00,15.70
2016,04,10,16,01,15.70
2016,04,10,16,02,15.70
2016,04,10,16,03,15.70
2016,04,10,16,04,15.70
2016,04,10,16,05,15.70
2016,04,10,16,06,15.80
2016,04,10,16,07,15.80
2016,04,10,16,08,15.80
2016,04,10,16,09,15.80
2016,04,10,16,10,15.80
2016,04,10,16,11,15.80
2016,04,10,16,12,15.80
2016,04,10,16,13,15.90
2016,04,10,16,14,15.80
2016,04,10,16,15,15.80
2016,04,10,16,16,15.80
2016,04,10,16,17,15.80
2016,04,10,16,18,15.70
2016,04,10,16,19,15.70
2016,04,10,16,20,15.70
2016,04,10,16,21,15.70
2016,04,10,16,22,15.70
2016,04,10,16,23,15.70
2016,04,10,16,24,15.70
2016,04,10,16,25,15.70
2016,04,10,16,26,15.70
2016,04,10,16,27,15.70
2016,04,10,16,28,15.70
2016,04,10,16,29,15.70
2016,04,10,16,30,15.70
2016,04,10,16,31,15.70
2016,04,10,16,32,15.70
2016,04,10,16,33,15.70
2016,04,10,16,34,15.70
2016,04,10,16,35,15.70
2016,04,10,16,36,15.70
2016,04,10,16,37,15.70
2016,04,10,16,38,15.70
2016,04,10,16,39,15.70
2016,04,10,16,40,15.70
2016,04,10,16,41,15.70
2016,04,10,16,42,15.70
2016,04,10,16,43,15.70
2016,04,10,16,44,15.80
2016,04,10,16,45,15.80
2016,04,10,16,46,15.80
2016,04,10,16,47,15.80
2016,04,10,16,48,15.80
2016,04,10,16,49,15.90
2016,04,10,16,50,15.90
2016,04,10,16,51,15.90
2016,04,10,16,52,15.90
2016,04,10,16,53,15.90
2016,04,10,16,54,15.90
2016,04,10,16,55,15.90
2016,04,10,16,56,15.90
2016,04,10,16,57,15.90
2016,04,10,16,58,15.90
2016,04,10,16,59,15.90
2016,04,10,17,00,15.90
2016,04,10,17,01,15.90
2016,04,10,17,02,15.80
2016,04,10,17,03,15.80
2016,04,10,17,04,15.80
2016,04,10,17,05,15.80
2016,04,10,17,06,15.80
2016,04,10,17,07,15.80
2016,04,10,17,08,15.80
2016,04,10,17,09,15.80
2016,04,10,17,10,15.80
2016,04,10,17,11,15.80
2016,04,10,17,12,15.80
2016,04,10,17,13,15.80
2016,04,10,17,14,15.80
2016,04,10,17,15,15.80
2016,04,10,17,16,15.80
2016,04,10,17,17,15.80
2016,04,10,17,18,15.80
2016,04,10,17,19,15.80
2016,04,10,17,20,15.80
2016,04,10,17,21,15.80
2016,04,10,17,22,15.80
2016,04,10,17,23,15.80
2016,04,10,17,24,15.70
2016,04,10,17,25,15.70
2016,04,10,17,26,15.70
2016,04,10,17,27,15.70
2016,04,10,17,28,15.70
2016,04,10,17,29,15.70
2016,04,10,17,30,15.70
2016,04,10,17,31,15.70
2016,04,10,17,32,15.70
2016,04,10,17,33,15.70
2016,04,10,17,34,15.80
2016,04,10,17,35,15.80
2016,04,10,17,36,15.80
2016,04,10,17,37,15.80
2016,04,10,17,38,15.70
2016,04,10,17,39,15.70
2016,04,10,17,40,15.70
2016,04,10,17,41,15.70
2016,04,10,17,42,15.70
2016,04,10,17,43,15.70